Theta_e
318 319 319 320 322 322 321 323 325 326 327 329 330 330 331 331 330 323 316 324 324 332 328 325 318 318 323 320 315 314 302 300 298 300 300 305 302 305 308 309 310 315 317 322 328
319 319 319 319 321 321 322 323 324 325 327 327 329 329 330 328 322 319 327 332 334 333 320 317 313 316 314 316 313 307 299 301 305 306 302 306 303 304 305 306 307 318 324 327 327
318 319 318 319 318 319 321 323 323 324 324 323 326 328 327 325 314 316 331 335 334 331 322 320 317 318 311 313 309 305 301 308 305 304 305 305 301 304 303 301 307 315 321 323 323
318 318 319 319 318 319 321 322 322 323 323 321 324 327 324 320 302 317 329 332 334 323 318 318 314 309 308 305 313 304 308 309 306 305 302 304 303 301 300 301 306 323 324 323 324
317 317 318 318 319 318 320 321 322 322 322 322 319 326 319 310 311 320 328 330 327 318 314 315 312 309 305 307 312 307 310 308 303 303 302 303 300 300 298 302 311 325 325 322 323
316 316 316 317 317 317 319 320 321 322 320 320 319 323 314 303 320 321 324 321 319 315 313 315 316 314 308 307 309 311 311 303 302 303 303 302 301 302 303 301 309 322 322 321 322
315 315 315 316 317 317 317 319 320 320 320 319 318 312 308 307 318 318 322 317 315 316 313 316 317 314 312 307 312 310 304 301 301 301 301 302 299 300 303 302 303 307 317 322 322
314 314 314 315 316 316 316 317 318 319 319 318 318 311 299 318 317 315 315 312 312 313 315 316 315 315 313 312 309 305 303 295 302 301 301 302 296 303 306 304 302 302 303 317 320
313 313 313 314 315 315 316 316 316 316 318 318 312 305 297 318 313 314 313 309 308 311 314 315 317 311 310 305 300 303 297 295 301 302 300 300 297 305 308 304 304 303 302 306 314
313 312 313 313 314 314 315 314 314 313 312 313 309 299 303 305 313 314 309 310 307 308 307 308 305 305 303 302 295 295 297 298 299 299 298 295 298 302 301 304 304 303 303 303 306
312 312 313 312 313 313 311 306 301 297 303 297 298 296 299 306 317 310 309 308 307 304 295 303 299 297 300 304 305 301 299 298 302 303 299 296 295 299 302 300 300 300 302 302 304
312 312 312 311 311 314 307 299 298 300 291 300 302 301 303 305 305 307 310 303 301 296 299 296 295 302 305 304 303 303 300 299 298 299 298 296 296 299 301 301 301 301 301 302 303
311 311 311 311 312 309 304 301 306 304 291 295 300 299 300 303 300 302 306 303 299 296 296 295 298 303 302 301 300 300 300 298 297 296 295 293 291 295 299 302 302 304 304 303 304
311 310 310 311 305 304 300 305 306 304 286 287 293 297 300 300 294 308 309 304 300 296 297 297 301 299 300 300 302 296 302 298 294 291 288 292 284 289 294 296 299 303 301 303 304
310 310 310 310 301 299 301 305 305 301 273 288 292 304 301 295 300 301 310 305 299 299 298 296 296 298 296 299 303 299 302 297 295 290 288 287 285 288 292 292 295 298 301 303 303
309 310 311 305 299 301 304 305 301 281 273 285 294 294 295 295 295 303 303 308 307 300 299 295 303 302 301 302 303 303 296 294 293 289 283 287 287 285 290 294 295 296 300 301 301
309 310 307 303 297 303 301 297 280 274 285 283 289 294 292 290 293 298 298 297 294 291 291 295 298 296 303 298 300 300 294 282 283 283 281 287 286 289 293 295 295 294 296 298 298
309 307 304 301 300 298 296 286 273 278 281 290 291 293 290 293 294 297 296 294 298 298 292 289 285 296 299 298 294 294 293 282 277 279 279 283 282 287 297 300 299 299 297 295 296
308 300 299 296 298 295 286 276 275 279 287 287 291 288 288 295 295 296 294 292 296 297 290 288 288 298 297 299 299 293 290 291 282 274 277 281 286 292 295 294 294 295 295 295 294
295 294 294 297 297 290 281 278 278 287 288 290 286 290 286 289 291 293 292 297 295 298 298 291 284 294 291 296 295 295 296 288 286 276 273 280 281 284 289 293 294 294 294 294 294
294 287 294 297 295 285 277 275 282 288 291 287 288 289 290 290 289 292 292 296 298 297 296 294 289 288 291 292 291 289 291 289 288 283 278 276 281 290 292 295 295 294 294 293 293
288 281 296 296 282 280 277 281 288 287 290 287 293 293 290 292 288 292 292 295 300 298 291 291 289 284 289 288 294 292 293 293 287 283 284 283 282 292 294 295 294 291 292 292 294
285 286 295 294 277 278 281 284 285 287 289 288 289 295 295 291 288 292 294 297 300 297 292 291 285 282 282 287 291 291 292 294 290 286 283 281 282 292 291 291 292 292 293 293 294
287 280 286 288 280 279 281 282 283 289 290 291 295 296 294 293 295 292 293 297 299 298 296 294 287 286 283 286 290 287 289 293 288 282 282 287 288 288 289 291 292 292 292 292 293
289 284 284 279 281 282 282 283 283 284 291 293 293 294 293 290 293 292 294 295 297 296 293 291 285 286 289 289 291 290 290 291 290 291 286 289 289 290 290 291 292 292 292 292 293
284 283 285 281 283 282 282 281 281 284 291 289 291 295 296 292 293 291 294 294 293 294 292 291 283 286 282 289 290 287 291 292 292 292 291 290 288 293 293 292 291 292 292 292 293
290 290 287 284 283 281 281 283 286 289 294 295 295 295 294 296 298 300 300 299 298 294 292 287 284 284 277 284 285 282 289 291 292 294 293 288 293 292 292 293 292 292 292 292 293
Wind_Speed
18 18 18 18 15 14 14 14 13 12 12 11 11 9 11 12 7 7 9 9 10 9 6 6 7 2 3 2 3 1 2 4 5 3 4 4 4 2 3 7 5 4 5 7 12
18 17 17 17 15 14 15 15 13 10 8 7 10 9 10 9 5 13 7 15 11 9 6 8 7 4 3 2 3 2 3 5 4 7 7 6 5 6 5 6 5 5 8 11 10
19 18 18 17 16 16 16 15 14 11 10 3 6 12 11 8 4 8 18 12 12 9 8 8 7 5 3 3 3 4 5 2 1 3 6 7 4 1 8 3 8 11 14 10 9
19 18 17 16 16 16 17 17 15 13 12 9 3 15 15 5 12 6 25 21 14 9 5 7 8 5 5 5 5 2 6 3 2 3 4 7 7 2 4 4 7 19 20 15 14
21 19 17 16 15 14 14 17 17 15 13 11 5 13 10 7 12 5 21 26 13 10 11 9 9 8 6 4 2 3 4 6 5 4 3 4 5 5 3 5 9 15 17 16 15
21 19 18 16 14 13 15 17 18 15 14 11 12 11 9 21 10 3 11 10 14 14 11 11 6 5 5 5 5 5 3 6 5 4 2 3 2 3 4 7 11 16 15 15 17
23 20 16 15 15 14 9 15 16 15 15 12 10 3 9 19 6 10 15 12 9 19 12 12 7 7 6 2 6 4 5 0 4 6 3 2 5 5 3 7 10 12 11 14 15
24 20 17 15 14 14 11 10 9 12 15 13 13 7 9 7 0 8 11 9 5 4 1 2 4 5 4 1 3 3 5 5 5 8 4 7 5 9 10 7 8 9 10 14 16
25 21 18 16 15 14 13 11 7 6 12 15 8 6 9 13 14 11 11 17 10 6 5 4 6 5 4 8 1 4 8 6 2 13 5 6 5 9 7 10 10 9 10 10 13
26 22 20 17 14 15 13 13 8 4 2 7 2 2 4 11 14 12 5 18 16 13 6 5 4 8 6 12 19 8 5 7 7 10 6 6 7 5 2 6 9 9 8 9 9
26 24 22 18 17 18 13 5 4 3 6 8 8 6 7 16 12 20 17 16 10 18 9 6 7 22 23 17 6 11 7 12 10 8 8 12 7 13 9 7 6 8 8 8 11
27 25 23 20 19 19 9 6 7 4 5 15 9 12 17 6 12 24 22 16 15 20 12 7 18 19 16 15 14 12 16 9 4 3 5 6 9 10 10 8 10 12 12 10 6
27 25 23 20 19 15 12 13 5 7 2 5 15 21 18 12 24 30 34 14 24 25 22 22 20 14 14 16 16 9 14 9 6 1 1 3 7 7 9 11 8 14 11 10 12
26 24 22 20 13 8 10 7 6 5 4 8 14 11 12 17 12 25 27 23 11 24 23 12 15 19 15 16 12 13 7 6 17 7 5 5 7 5 4 9 11 15 9 10 11
26 24 22 22 11 11 7 11 8 4 8 9 17 18 18 18 5 34 28 13 28 22 14 13 25 29 24 20 12 5 9 6 5 4 5 2 2 8 4 5 7 11 13 15 11
24 23 24 15 4 10 11 10 7 9 15 6 12 15 14 15 29 21 31 3 16 22 9 4 11 15 12 8 11 10 10 6 4 3 2 7 7 6 5 9 5 6 11 12 10
21 21 19 9 9 11 8 5 5 13 2 7 9 14 24 30 27 29 28 22 12 22 21 9 16 2 15 12 2 14 15 2 2 2 7 5 6 8 5 6 6 3 8 10 8
24 26 13 8 12 12 4 4 9 16 23 0 9 17 21 24 29 31 31 23 12 23 21 18 12 18 14 16 15 15 15 8 8 6 4 6 9 8 15 11 7 7 6 4 6
29 6 7 9 11 8 7 7 10 8 4 22 6 12 18 25 20 27 31 24 13 20 14 10 9 10 7 12 19 14 10 7 8 5 3 6 6 9 8 7 7 7 5 7 4
5 5 6 13 10 6 4 12 9 12 10 20 21 19 23 24 15 27 28 31 18 22 9 7 8 15 4 9 2 14 10 6 3 5 4 4 5 7 7 11 8 7 8 7 3
7 5 11 14 7 3 7 11 11 15 13 12 26 17 21 20 15 30 28 21 24 30 12 12 7 6 13 11 19 9 13 4 7 6 6 3 8 9 12 17 15 7 8 9 10
5 5 12 10 5 3 10 9 9 17 22 25 18 13 14 26 16 16 24 19 33 31 22 7 9 12 26 3 6 3 15 13 11 10 4 3 7 4 10 10 9 10 9 8 9
6 4 9 3 10 11 5 14 16 17 23 16 20 25 13 19 16 12 24 10 30 31 23 11 5 13 3 4 4 15 11 16 4 4 9 7 8 3 7 9 9 13 9 9 8
5 6 4 4 1 6 10 13 19 25 29 25 20 25 19 19 13 20 25 19 23 21 11 8 6 14 23 34 18 24 20 23 6 5 6 15 9 1 8 11 8 8 9 9 8
3 5 5 8 8 13 11 9 18 21 30 28 20 38 25 15 22 17 23 22 17 19 6 7 8 6 12 13 14 23 19 19 16 12 11 16 14 9 11 12 11 10 8 9 9
5 4 2 3 4 12 12 13 25 20 19 23 19 36 32 19 13 28 25 27 26 12 12 2 3 8 5 16 18 21 20 20 19 23 14 13 13 10 10 5 8 11 10 9 8
2 3 3 6 7 10 13 12 15 23 17 22 34 30 28 29 19 25 27 26 34 32 20 8 10 10 3 9 12 7 30 32 29 23 27 18 28 8 13 14 9 11 10 10 9
Wind_Direction
230 234 235 239 230 231 242 246 245 246 235 222 199 222 194 196 178 189 194 200 209 125 127 148 236 288 281 261 324 334 83 207 219 161 168 158 110 40 119 113 56 28 146 167 150
223 229 229 228 233 231 234 237 245 238 211 207 197 180 175 168 187 222 193 209 205 139 157 185 184 181 239 237 289 127 139 224 235 168 152 164 127 145 111 123 64 58 53 115 129
216 219 225 221 234 238 229 233 231 219 203 155 143 151 150 138 234 235 207 206 200 177 190 185 172 181 222 162 217 201 197 289 33 85 124 156 120 163 126 203 185 165 146 147 147
213 211 213 222 231 242 227 224 223 216 204 188 81 154 152 145 227 199 191 203 186 182 194 200 183 179 207 191 215 226 239 111 281 55 85 152 139 152 137 196 159 161 157 155 169
207 206 210 216 222 232 234 222 218 211 198 200 157 158 153 210 224 330 189 182 174 180 193 192 201 177 193 189 202 238 233 141 127 87 55 118 141 178 175 177 120 142 153 163 175
204 203 201 210 218 228 231 225 210 199 191 198 196 162 212 227 191 134 168 172 165 175 193 195 210 179 188 185 186 210 294 151 136 139 41 127 106 117 225 145 122 154 168 169 179
201 198 193 198 210 213 231 220 203 199 189 192 180 130 289 221 198 162 163 188 185 176 179 202 205 157 137 134 217 149 145 323 161 156 201 109 296 215 193 152 152 168 176 177 187
199 191 188 193 199 209 208 197 209 209 196 184 174 179 249 253 343 158 161 164 172 153 122 280 150 118 148 150 31 135 167 157 220 138 235 147 255 231 222 178 195 202 187 188 189
192 185 185 185 189 201 198 200 188 205 203 184 168 156 250 321 197 183 161 165 147 118 89 68 119 150 136 133 105 219 194 170 171 173 146 166 233 246 244 192 215 207 204 199 197
187 180 181 181 179 195 188 154 125 138 181 192 141 91 248 216 189 182 170 153 156 133 91 106 67 169 173 175 206 155 168 186 187 195 167 178 237 259 288 190 214 206 216 206 205
183 178 177 180 184 190 180 171 160 189 199 195 161 178 260 223 199 174 160 144 159 156 152 182 157 195 191 194 193 164 178 188 220 182 147 198 199 238 251 251 228 237 227 219 207
180 176 176 178 187 188 154 184 164 166 185 217 206 210 232 287 226 175 168 143 163 177 127 139 208 202 186 183 213 188 186 188 25 125 131 211 232 227 225 221 211 216 230 226 225
177 174 174 176 182 182 184 192 48 60 355 192 200 212 216 213 246 173 170 150 175 168 183 185 185 153 175 189 204 217 193 200 145 213 345 99 272 216 235 222 199 227 224 212 210
172 173 170 171 173 155 185 147 101 71 245 239 183 219 190 224 278 179 185 149 169 182 185 194 164 165 173 198 199 198 218 156 146 152 196 166 271 292 218 232 227 222 212 215 214
172 172 175 165 135 171 125 148 144 84 246 218 200 157 169 186 278 175 168 218 167 166 162 190 174 175 178 191 174 162 111 110 100 103 100 224 91 272 270 254 246 224 222 228 208
169 175 167 161 79 119 117 109 117 198 226 219 159 186 159 181 216 185 178 168 183 159 174 142 158 157 180 134 171 143 100 52 68 104 254 198 159 261 210 220 233 225 226 220 222
165 166 153 139 136 117 103 96 200 203 214 210 189 166 185 207 205 175 190 184 178 156 164 144 166 178 147 126 325 147 140 167 166 152 230 253 187 234 220 205 173 147 191 205 209
154 140 127 107 123 107 101 148 213 228 227 290 179 185 193 205 202 181 186 182 191 166 147 158 178 165 161 174 177 173 182 164 163 168 208 287 225 250 219 236 214 187 175 176 122
150 135 120 139 118 102 100 203 213 189 212 216 207 177 218 203 181 190 188 177 166 157 144 142 182 193 173 145 150 183 190 135 92 28 100 210 283 306 256 232 191 182 163 206 202
102 116 123 137 116 77 115 233 226 212 258 249 197 192 200 202 194 180 178 184 160 170 144 159 115 177 170 117 50 180 151 127 14 152 236 266 262 230 210 230 216 205 192 217 211
111 118 141 132 84 127 198 224 230 219 217 249 215 201 203 203 226 178 181 174 173 169 156 134 114 162 150 191 175 153 182 161 119 153 156 165 250 214 194 200 216 193 187 167 156
119 120 155 148 162 178 216 197 229 238 210 212 246 192 185 193 181 172 176 173 174 168 153 188 130 157 185 316 208 184 188 179 177 193 205 167 268 251 201 204 155 168 157 157 163
108 104 157 158 184 210 231 230 232 239 217 203 237 198 181 191 165 173 183 187 173 171 161 175 135 128 132 349 348 199 193 188 101 92 194 147 247 264 134 130 151 151 164 169 170
123 143 149 213 195 179 221 241 242 229 240 219 215 175 180 200 165 179 170 170 167 166 108 94 142 178 187 190 163 188 194 190 133 163 148 213 193 270 167 155 159 168 171 181 185
159 185 174 177 217 228 226 245 236 226 212 204 225 189 171 193 163 175 149 159 156 148 119 116 142 107 148 147 169 186 184 192 206 200 185 218 217 201 188 179 177 171 182 182 200
142 159 111 168 123 223 239 236 245 245 194 201 216 178 180 183 167 151 151 161 169 176 157 141 136 121 48 154 168 177 183 185 206 220 228 230 254 162 208 171 168 191 186 197 207
118 51 119 184 192 218 227 219 251 218 204 195 194 162 176 184 176 171 167 160 173 170 168 123 137 138 155 134 123 172 194 193 204 207 210 207 231 170 198 207 189 194 194 195 211